Weather History for Port Angeles, WA

Change the Weather History Date:

Sunday, August 11, 2013

  Actual Average Record
Temperature  
Mean Temperature 60 °F -  
Max Temperature 64 °F 69 °F 88 °F (1981)
Min Temperature 55 °F 52 °F 42 °F (1966)
Degree Days  
Heating Degree Days 6    
Growing Degree Days 10 (Base 50)    
Moisture  
Dew Point 53 °F    
Average Humidity 84    
Maximum Humidity 93    
Minimum Humidity 67    
Precipitation  
Precipitation 0.00 in - - ()
Sea Level Pressure  
Sea Level Pressure 30.05 in    
Wind  
Wind Speed 8 mph (WNW)    
Max Wind Speed 13 mph    
Max Gust Speed 17 mph    
Visibility 10 miles    
Events      
Averages and records for this station are not official NWS values.
T = Trace of Precipitation, MM = Missing Value Source: NWS Daily Summary

Daily Weather History Graph

Daily Weather History Graph

Search for Another Location

Airport:

Trip Planner

Search our weather history database for the weather conditions in past years. The results will help you decide how hot, cold, wet, or windy it might be!

Date:

Astronomy

Aug. 11, 2013 Rise Set
Actual Time 6:03 AM PDT 8:33 PM PDT
Civil Twilight 5:28 AM PDT 9:08 PM PDT
Nautical Twilight 4:44 AM PDT 9:52 PM PDT
Astronomical Twilight 3:53 AM PDT 10:42 PM PDT
Moon 11:25 AM PDT (8/11) 10:22 PM PDT (8/11)
Length of Visible Light 15h 39m
Length of Day
14h 30m
Waxing Crescent, 23% of the Moon is Illuminated
Aug 11
Waxing Crescent
Aug 14
First Quarter
Aug 20
Full
Aug 28
Last Quarter
Sep 5
New

Hourly Weather History & Observations

Time (PDT) Temp. Dew Point Humidity Pressure Visibility Wind Dir Wind Speed Gust Speed Precip Events Conditions
12:53 AM 55.9 °F 53.1 °F 90% 30.03 in 10.0 mi West 11.5 mph - N/A   Clear
1:53 AM 55.9 °F 53.1 °F 90% 30.04 in 10.0 mi WNW 9.2 mph - N/A   Clear
2:53 AM 55.9 °F 53.1 °F 90% 30.05 in 10.0 mi NW 3.5 mph - N/A   Clear
3:53 AM 55.9 °F 52.0 °F 87% 30.04 in 10.0 mi West 11.5 mph - N/A   Scattered Clouds
4:04 AM 55.9 °F 52.0 °F 87% 30.03 in 10.0 mi WNW 12.7 mph - N/A   Scattered Clouds
4:53 AM 55.9 °F 52.0 °F 87% 30.03 in 10.0 mi WNW 9.2 mph - N/A   Mostly Cloudy
5:14 AM 55.0 °F 53.1 °F 93% 30.04 in 10.0 mi WNW 9.2 mph - 0.00 in   Mostly Cloudy
5:30 AM 55.0 °F 53.1 °F 93% 30.04 in 10.0 mi North - - 0.00 in   Mostly Cloudy
5:53 AM 55.0 °F 53.1 °F 93% 30.06 in 10.0 mi WNW 4.6 mph - 0.00 in   Overcast
6:12 AM 55.9 °F 52.0 °F 87% 30.04 in 10.0 mi WNW 10.4 mph - N/A   Mostly Cloudy
6:19 AM 55.9 °F 52.0 °F 87% 30.04 in 10.0 mi WNW 11.5 mph - N/A   Mostly Cloudy
6:40 AM 55.0 °F 53.1 °F 93% 30.05 in 10.0 mi WNW 6.9 mph - N/A   Mostly Cloudy
6:53 AM 55.9 °F 53.1 °F 90% 30.06 in 10.0 mi WNW 8.1 mph - N/A   Overcast
7:53 AM 55.9 °F 53.1 °F 90% 30.06 in 10.0 mi NW 8.1 mph - N/A   Overcast
8:03 AM 55.9 °F 53.1 °F 90% 30.06 in 10.0 mi NW 5.8 mph - N/A   Overcast
8:23 AM 57.0 °F 53.1 °F 87% 30.07 in 10.0 mi WSW 3.5 mph - N/A   Overcast
8:44 AM 57.0 °F 52.0 °F 83% 30.08 in 10.0 mi SW 4.6 mph - N/A   Overcast
8:53 AM 57.0 °F 53.1 °F 87% 30.08 in 10.0 mi WSW 5.8 mph - N/A   Overcast
9:33 AM 59.0 °F 53.1 °F 81% 30.07 in 10.0 mi WNW 5.8 mph - N/A   Overcast
9:53 AM 59.0 °F 53.1 °F 81% 30.07 in 10.0 mi West 4.6 mph - N/A   Overcast
10:53 AM 61.0 °F 53.1 °F 75% 30.08 in 10.0 mi Variable 4.6 mph - N/A   Overcast
11:53 AM 61.0 °F 53.1 °F 75% 30.07 in 10.0 mi WNW 6.9 mph - N/A   Overcast
12:42 PM 63.0 °F 54.0 °F 72% 30.07 in 10.0 mi North 6.9 mph - N/A   Partly Cloudy
12:53 PM 63.0 °F 54.0 °F 72% 30.07 in 10.0 mi NNE 6.9 mph - N/A   Partly Cloudy
1:53 PM 64.9 °F 54.0 °F 68% 30.08 in 10.0 mi NNW 8.1 mph - N/A   Clear
2:53 PM 64.0 °F 53.1 °F 67% 30.07 in 10.0 mi NW 11.5 mph - N/A   Clear
3:53 PM 62.1 °F 52.0 °F 70% 30.05 in 10.0 mi NW 10.4 mph - N/A   Scattered Clouds
4:53 PM 62.1 °F 52.0 °F 70% 30.04 in 10.0 mi NW 11.5 mph 17.3 mph N/A   Scattered Clouds
5:53 PM 61.0 °F 53.1 °F 75% 30.04 in 10.0 mi WNW 11.5 mph - N/A   Scattered Clouds
6:53 PM 60.1 °F 53.1 °F 78% 30.04 in 10.0 mi WNW 9.2 mph - N/A   Overcast
7:53 PM 57.9 °F 53.1 °F 84% 30.04 in 10.0 mi WNW 4.6 mph - N/A   Mostly Cloudy
8:53 PM 57.0 °F 53.1 °F 87% 30.04 in 10.0 mi WNW 6.9 mph - 0.00 in   Mostly Cloudy
9:03 PM 57.0 °F 53.1 °F 87% 30.04 in 10.0 mi West 9.2 mph - N/A   Overcast
9:41 PM 57.0 °F 53.1 °F 87% 30.04 in 10.0 mi WNW 8.1 mph - N/A   Overcast
9:53 PM 57.0 °F 53.1 °F 87% 30.04 in 10.0 mi WNW 8.1 mph - N/A   Mostly Cloudy
10:53 PM 55.9 °F 53.1 °F 90% 30.04 in 10.0 mi WNW 6.9 mph - N/A   Scattered Clouds
11:53 PM 55.9 °F 53.1 °F 90% 30.04 in 10.0 mi Calm Calm - N/A   Overcast